Location: Austin
(30.3000°N, 97.7500°W)
Time: 03:06:29
(UTC-05:00)

Cosmos 1140 Rocket - Pass Details

Date: 18 March 2023
Orbit: 743 x 766 km, 74.1° (Epoch: 01 April)

Event Time Altitude Azimuth Distance (km) Brightness Sun altitude
Rises 20:27:48 0° 353° (N) 3,212 6.9 -10.9°
Reaches altitude 10° 20:30:18 10° 1° (N) 2,287 6.0 -11.4°
Maximum altitude 20:35:10 40° 70° (ENE) 1,108 3.9 -12.5°
Drops below altitude 10° 20:40:02 10° 140° (SE) 2,289 5.5 -13.5°
Enters shadow 20:40:09 10° 140° (SE) 2,328 5.6 -13.5°
